Location: Bosdarros
(43.2167°N, 0.3667°W)
Time: 06:54:23
(UTC+00:00)

SeaSat 1 - Pass Details

Date: 22 April 2021
Orbit: 744 x 747 km, 108.0° (Epoch: 07 May)

Event Time Altitude Azimuth Distance (km) Brightness Sun altitude
Rises 23:25:27 0° 21° (NNE) 3,202 6.5 -33.7°
Reaches altitude 10° 23:27:47 10° 16° (NNE) 2,274 5.6 -33.8°
Enters shadow 23:31:04 36° 347° (NNW) 1,174 3.8 -33.9°
